Location: Les Jeannots
(43.2262°N, 5.5774°E)
Time: 17:15:56
(UTC+00:00)

Daily predictions for brighter satellites

Satellite Brightness Start Highest point End
(mag) Time Altitude Azimuth Time Altitude Azimuth Time Altitude Azimuth
H-2A R/B 4.0 19:49:59 10° SSW 19:54:45 31° W 19:59:32 10° NNW
VEP-3 4.3 19:55:45 10° SSW 19:58:55 15° S 20:02:40 10° SE
Cosmos 2322 Rocket 2.3 19:54:36 10° SSW 20:00:13 86° WNW 20:05:52 10° NNE
SPOT 3 Rocket 3.7 19:56:54 10° SSE 20:02:07 81° WSW 20:07:22 10° NNW
NOSS 7 (D) 3.8 19:59:35 10° SSW 20:02:26 58° SE 20:05:08 10° NE
Cosmos 2237 4.3 19:57:23 10° S 20:02:58 57° ESE 20:08:36 10° NNE
OAO 2 Rocket 4.4 19:59:43 10° SW 20:04:11 28° SSE 20:08:41 10° ESE
Cosmos 1455 2.6 20:09:19 10° N 20:13:03 49° ENE 20:16:45 10° SSE
Cosmos 1461 3.8 20:08:33 10° NW 20:13:10 54° WSW 20:17:46 10° SSE
Cosmos 1825 Rocket 4.3 20:10:56 10° SSE 20:14:58 36° E 20:19:04 10° NNE
ATLAS CENTAUR R/B 3.5 20:16:51 10° N 20:18:48 14° NE 20:20:44 10° ENE
Cosmos 1703 3.7 20:15:54 10° SSE 20:19:33 41° E 20:23:13 10° NNE
COSMOS 2428 3.8 20:15:59 10° SSE 20:20:21 24° ESE 20:24:46 10° NE
Geosat 4.4 20:15:35 10° SSE 20:20:32 60° WSW 20:25:32 10° NNW
Cosmos 1812 Rocket 3.5 20:19:00 10° N 20:23:21 87° W 20:27:40 10° S
Cosmos 2322 4.1 20:18:43 10° S 20:24:04 43° ESE 20:29:27 10° NE
Cosmos 1844 4.2 20:19:09 10° NNW 20:24:45 48° ENE 20:29:32 14° SE
Delta 2 Rocket 4.1 20:23:50 10° SW 20:26:34 22° S 20:28:09 16° SE
Cosmos 1602 Rocket 4.1 20:23:58 10° SSW 20:28:18 61° W 20:32:44 10° N
Cosmos 1709 Rocket 4.3 20:24:58 10° SSE 20:31:00 51° E 20:37:08 10° NNE
NOSS 3-3 (A) 4.4 20:27:21 10° S 20:32:30 35° ESE 20:38:09 10° NE
NOSS 3-3 (C) 4.4 20:27:28 10° S 20:32:37 35° ESE 20:38:16 10° NE
Cosmos 2263 Rocket 4.0 20:28:21 10° NW 20:32:54 26° WSW 20:37:26 10° SSW
MetOp-B 4.1 20:27:55 10° SSE 20:33:16 87° ENE 20:38:40 10° NNW
Nadezhda 1 Rocket 4.1 20:27:37 10° N 20:34:04 87° W 20:40:27 10° S
Cosmos 2237 Rocket 4.1 20:33:12 10° ESE 20:34:23 11° E 20:35:54 10° E
Atlas Centaur 2 3.5 20:29:44 10° SW 20:34:33 26° S 20:38:47 15° SE
Terra 3.3 20:31:40 12° ESE 20:34:54 24° ENE 20:38:39 10° NNE
Cosmos 2333 4.4 20:30:24 10° S 20:35:50 51° ESE 20:41:20 10° NE
Cosmos 2219 Rocket 2.8 20:31:18 10° S 20:36:17 35° ESE 20:41:19 10° NE
Cosmos 2360 Rocket 2.3 20:32:27 10° SSW 20:38:05 81° WNW 20:43:48 10° NNE
IGS 5A 3.5 20:35:34 15° SSE 20:39:00 71° ENE 20:43:09 10° N
IRIS 4.0 20:39:02 10° WSW 20:42:05 48° S 20:43:18 23° ESE
DELTA 2 R/B (1) 4.5 20:38:28 10° SSW 20:43:02 26° SSE 20:47:37 10° E
Cosmos 2333 Rocket 2.5 20:40:38 10° S 20:46:01 46° ESE 20:51:27 10° NE
Resurs 01 Rocket 3.0 20:46:49 10° SSW 20:50:52 35° W 20:54:56 10° NNW
ATLAS 2AS CENTAUR R/B 4.5 20:44:58 10° NNW 20:51:15 26° NNE 20:57:07 10° E
Cosmos 1315 Rocket 4.0 20:48:39 10° N 20:52:16 30° ENE 20:54:13 20° ESE
Cosmos 1818 4.1 20:48:06 10° SW 20:53:29 63° NW 20:58:54 10° NNE
Cosmos-2242 3.0 20:51:32 10° N 20:55:53 88° W 20:59:05 18° S
Cosmos 773 Rocket 4.0 20:50:50 10° S 20:56:05 71° ESE 21:01:23 10° NNE
SL-16 R/B 4.4 20:52:32 10° WSW 20:57:21 28° NW 21:02:12 10° N
ERS-1 Rocket 3.1 20:56:51 20° SSE 21:00:16 65° ENE 21:05:16 10° N
Cosmos 2221 4.0 20:57:13 10° NNE 21:00:44 23° ENE 21:02:29 18° ESE
GEOS 3 Rocket 3.9 20:59:20 10° NNE 21:04:44 75° NW 21:10:06 10° SW
USA 215 3.2 21:01:32 10° NE 21:08:06 73° SE 21:14:38 10° SW
Cosmos 2278 Rocket 3.4 21:04:34 10° N 21:09:33 30° NE 21:13:09 16° ESE
ATLAS 5 CENTAUR R/B 2.7 21:06:21 10° WSW 21:10:19 45° NW 21:14:47 10° NNE
USA 245 4.0 21:08:35 18° SSW 21:10:40 41° W 21:14:25 10° NNW
Meteor 1-11 4.2 21:05:32 12° S 21:10:41 82° E 21:16:24 10° NNE
Cosmos 1844 Rocket 3.0 21:09:04 10° NNW 21:14:32 58° WSW 21:18:16 20° S
Cosmos 1400 Rocket 3.5 21:11:19 10° NNW 21:15:11 50° W 21:17:41 19° SSW
SPOT 5 2.9 21:13:57 25° SSE 21:16:58 80° ENE 21:21:49 10° N
Lacrosse 5 rocket 4.5 21:18:04 10° NNW 21:19:47 12° N 21:21:29 10° NNE
Spot 2 Rocket 4.4 21:16:44 14° SSW 21:20:53 44° W 21:25:46 10° NNW
OAO 3 Rocket 4.5 21:19:31 10° WSW 21:23:24 23° SSW 21:23:58 23° S
USA 81 4.0 21:19:52 20° S 21:23:38 89° E 21:28:57 10° N
Cosmos 2058 4.0 21:25:00 26° ESE 21:25:37 27° E 21:29:08 10° NNE
BREEZE M DEB (TANK) 1.6 21:25:33 10° WNW 21:27:39 68° W 21:27:39 68° W
Cosmos 2181 Rocket 4.0 21:23:52 10° N 21:30:14 84° W 21:34:15 24° S
Cosmos 2074 Rocket 4.1 21:29:15 26° SSE 21:32:46 60° E 21:38:52 10° NNE
SPOT 1/Viking Rocket 4.4 21:31:52 17° SSW 21:35:29 42° W 21:40:24 10° NNW
Cosmos 1076 Rocket 4.4 21:36:08 31° ESE 21:36:47 32° E 21:40:37 10° NNE
Cosmos 1680 Rocket 4.2 21:35:41 31° SE 21:37:00 35° E 21:41:48 10° NE
USA 267 3.8 21:34:04 14° ESE 21:39:34 56° NNE 21:45:57 10° NW
Cosmos 2084 3.5 21:42:14 10° NW 21:46:42 82° NE 21:48:05 44° SE
Cosmos 1842 Rocket 3.4 21:43:20 10° N 21:47:43 86° E 21:49:02 44° SSE
OAO 2 Rocket 4.1 21:43:38 10° WSW 21:48:23 34° S 21:48:29 34° S
JB-3 4.1 21:45:24 10° NNE 21:49:14 71° ESE 21:49:57 54° SSE
MTI 3.5 21:50:05 10° NNE 21:53:10 88° WNW 21:53:10 88° WNW
Cosmos 923 Rocket 4.0 21:52:20 36° S 21:54:25 66° ESE 21:59:40 10° NNE
Cosmos 1825 3.7 21:58:09 24° E 21:58:09 24° E 22:00:51 10° NE
ATLAS CENTAUR R/B 1.0 21:54:29 10° NW 21:58:08 69° WSW 21:58:26 64° SSW
Cosmos 1980 3.7 21:56:55 35° S 21:59:13 63° ESE 22:04:48 10° NNE
ALOS 2 4.5 21:58:03 17° E 21:59:21 19° ENE 22:02:24 10° NNE
Cosmos 967 Rocket 4.5 21:55:33 13° SSW 22:01:26 87° ESE 22:07:56 10° NNE
COSMOS 2428 3.4 21:58:43 10° SW 22:04:14 52° WNW 22:09:47 10° NNE
Cosmos 1869 3.5 22:04:40 10° NNW 22:08:38 65° W 22:09:23 52° SSW
NOSS 0 Rocket 3.9 22:07:31 23° SSW 22:11:33 88° WNW 22:17:46 10° NNE
Terra 2.7 22:10:34 28° SW 22:12:24 40° W 22:16:53 10° NNW
Cosmos 1610 Rocket 4.4 22:11:20 36° S 22:14:08 81° E 22:20:31 10° N
NOSS 3-4 (A) 4.1 22:08:27 10° NNW 22:15:24 62° NE 22:19:47 27° ESE
NOSS 3-4 (C) 4.1 22:08:34 10° NNW 22:15:31 62° NE 22:19:55 27° ESE
Cosmos 2237 Rocket 2.1 22:14:57 35° SSW 22:17:28 82° ESE 22:23:12 10° NNE
Genesis I 3.2 22:18:36 62° E 22:18:36 62° E 22:22:08 10° NE
Cosmos 2344 3.5 22:16:02 29° S 22:20:03 62° ESE 22:27:45 10° NE
Cosmos 2219 Rocket 3.6 22:15:05 10° WSW 22:20:11 36° NW 22:25:21 10° N
Elektron 1 4.3 22:21:21 58° WSW 22:21:53 74° NW 22:26:39 10° NE
BREEZE-M R/B 4.0 22:13:44 10° WNW 22:22:28 48° SW 22:23:36 42° SSW
Atlas Centaur 2 3.9 22:17:54 10° WSW 22:21:21 21° SSW 22:21:21 21° SSW
DELTA 2 R/B (1) 3.6 22:23:27 10° WSW 22:28:53 53° SSE 22:30:03 45° SE
Cosmos 2333 Rocket 4.0 22:25:33 10° WSW 22:30:28 29° NW 22:35:27 10° N
Thor Agena Rocket 3.4 22:26:51 10° NNE 22:31:59 85° ESE 22:33:18 51° S
Cosmos 2221 3.8 22:34:26 10° NNW 22:38:19 31° W 22:39:20 28° WSW
BREEZE-M DEB (TANK) 2.9 22:37:45 10° WNW 22:41:11 34° N 22:41:22 34° NNE
Iridium 2 3.7 22:38:42 10° N 22:42:26 73° WNW 22:42:26 73° WNW
Cosmos 1892 3.9 22:41:59 31° W 22:42:39 34° WNW 22:46:09 10° N
Cosmos 1371 Rocket 4.0 22:37:48 10° NNW 22:43:06 82° ENE 22:44:15 56° SSE
ATLAS 2AS CENTAUR R/B 2.8 22:35:51 10° NW 22:43:26 81° NE 22:46:25 38° SE
Cosmos 1766 Rocket 3.9 22:44:24 49° E 22:44:24 49° E 22:48:39 10° NNE
EO 1 Del DPAF 3.2 22:41:15 10° N 22:44:59 72° WNW 22:44:59 72° WNW
MOS 1-B Rocket 4.3 22:39:21 10° NNE 22:47:02 88° WNW 22:49:57 38° SSW
Okean 3 Rocket 3.6 22:47:03 62° ESE 22:47:11 63° E 22:51:35 10° NNE
Aureole 2 Rocket 4.0 22:47:20 10° N 22:48:59 27° NNE 22:48:59 27° NNE
Cosmos 1328 Rocket 4.3 22:46:08 10° N 22:50:12 39° ENE 22:50:25 39° E
Cosmos 2112 Rocket 4.3 22:48:24 36° SW 22:50:30 63° WNW 22:55:51 10° NNE
USA 215 4.4 22:44:45 10° NE 22:50:52 43° NNW 22:56:57 10° W
Cosmos 1606 3.2 22:48:45 10° N 22:52:19 50° ENE 22:52:19 50° ENE
Cosmos 2218 Rocket 4.3 22:50:54 42° SE 22:52:35 54° E 22:58:44 10° NNE
Cosmos 2278 Rocket 2.8 22:48:26 10° NW 22:53:47 44° WSW 22:54:59 38° SW
Cosmos 158 Rocket 4.5 22:52:56 33° WSW 22:54:45 51° WNW 22:59:33 10° N
Cosmos 2297 4.1 22:49:42 10° NNW 22:55:22 57° ENE 22:57:11 40° ESE
Cosmos 2366 rocket 4.2 22:56:35 44° SE 22:58:16 57° E 23:04:28 10° NNE
Cosmos 1420 Rocket 4.5 22:54:06 10° NNW 22:59:16 52° ENE 23:00:36 42° ESE
Spot 4 4.1 22:59:07 51° SW 22:59:44 56° W 23:04:27 10° NNW
Lacrosse 5 rocket 4.2 22:58:03 10° NNW 23:00:27 15° NNE 23:02:47 10° NE
SL-16 R/B 2.1 23:00:46 56° SSE 23:01:48 69° ESE 23:07:28 10° NNE
Cosmos 1943 Rocket 3.5 22:56:46 10° N 23:01:51 32° NE 23:04:40 21° ESE
Cosmos 1408 4.0 23:03:24 29° W 23:03:30 29° WNW 23:06:41 10° NNW
Cosmos 2056 Rocket 3.5 23:01:37 10° NNW 23:07:02 74° WSW 23:07:58 59° SSW
Cosmos 1959 Rocket 4.5 23:06:20 50° SSE 23:07:52 69° E 23:14:02 10° NNE
Cosmos 2341 Rocket 4.1 23:11:47 42° SSW 23:13:55 67° W 23:20:07 10° N
Cosmos 332 Rocket 4.3 23:15:57 10° N 23:20:37 49° ENE 23:21:28 44° E
Meteor 2-3 Rocket 3.7 23:21:02 57° SSE 23:22:04 72° E 23:27:45 10° NNE
USA 267 3.5 23:21:24 45° SSW 23:22:36 50° SW 23:28:57 10° WNW
IRIDIUM 104 4.2 23:23:26 63° SSW 23:24:16 80° W 23:29:31 10° N
Cosmos 2151 4.0 23:23:52 35° W 23:24:22 37° WNW 23:28:22 10° N
Helios 1A 3.1 23:24:53 64° ENE 23:24:53 64° ENE 23:29:02 10° N
Cosmos 405 4.3 23:26:23 10° N 23:29:08 33° NE 23:29:08 33° NE
SL-8 Rocket 4.2 23:30:58 44° SW 23:32:52 64° W 23:39:00 10° N
Cosmos 1825 4.0 23:32:56 22° W 23:33:12 22° WNW 23:36:13 10° NNW
IRIDIUM 114 4.4 23:32:35 56° SW 23:33:26 66° W 23:38:39 10° N
Cosmos 1340 3.1 23:34:23 59° NNW 23:34:23 59° NNW 23:37:36 10° N
Meteor 1-26 Rocket 4.3 23:27:54 10° N 23:33:57 83° E 23:35:20 55° SSE
Cosmos 1452 Rocket 3.6 23:28:50 10° NNW 23:34:07 70° ENE 23:35:06 56° SE
CZ-4C R/B 4.1 23:28:05 10° NNW 23:34:40 39° NE 23:42:11 10° ESE
ALOS 2 3.2 23:35:27 45° W 23:35:27 45° W 23:39:34 10° NNW
COSMOS 2455 3.2 23:29:54 10° NNW 23:35:53 59° NE 23:38:24 34° ESE
Cosmos 1408 Rocket 3.5 23:35:56 77° W 23:35:57 77° W 23:40:22 10° N
PSLV R/B 4.4 23:32:55 10° NNE 23:36:34 37° E 23:36:34 37° E
Cosmos 1603 4.4 23:36:25 36° ESE 23:36:53 36° ESE 23:42:04 10° NE
Cosmos 1933 3.8 23:34:40 10° NNW 23:38:13 54° WNW 23:38:13 54° WNW
Cosmos 1151 Rocket 3.4 23:35:58 10° NNW 23:40:03 53° W 23:40:03 53° W
Cosmos 44 4.0 23:43:37 36° W 23:44:40 42° NW 23:48:53 10° NNE
Cosmos 1500 Rocket 3.7 23:44:49 64° E 23:44:49 64° E 23:49:07 10° NNE
Cosmos 1727 Rocket 3.9 23:40:08 10° N 23:46:25 90° W 23:48:04 53° S
Cosmos 2369 Rocket 2.9 23:41:06 10° NNW 23:46:32 49° ENE 23:48:50 31° ESE
Resurs 1-4 Rocket 4.4 23:45:17 10° ENE 23:47:08 12° E 23:48:44 10° ESE
GP-B 4.0 23:44:26 10° NNW 23:48:31 36° W 23:48:50 36° W
SL-08 R/B 4.5 23:46:43 51° S 23:48:31 90° E 23:54:59 10° N
Cosmos 371 Rocket 3.3 23:45:31 10° NNW 23:50:19 62° WSW 23:50:25 62° WSW
SeaSat 1 4.2 23:47:57 10° ENE 23:51:20 18° ESE 23:51:20 18° ESE
Helios 1B rocket 3.0 23:51:40 10° NNE 23:55:23 48° E 23:55:23 48° E
